Temp
16 16 17 17 17 18 19 19 19 20 21 22 23 23 24 24 24 25 25 26 26 25 24 22 24 25 24 24 26 27 22 22 26 27 29 31 31 30 29 29 28 27 25 24 24
16 16 17 17 17 18 18 19 19 20 21 21 22 23 24 24 25 25 26 26 26 26 24 24 26 26 26 27 27 28 18 19 25 24 30 30 30 29 29 29 28 27 25 24 24
16 16 17 17 17 18 18 19 19 19 20 21 22 23 23 24 25 27 27 27 26 26 24 24 25 27 27 27 27 30 20 29 30 31 31 30 30 28 30 29 28 26 25 24 24
16 16 17 17 18 18 18 19 19 19 20 21 21 22 23 24 27 26 26 27 26 26 24 24 26 24 23 25 27 28 30 29 26 31 30 29 30 27 27 29 27 26 25 25 24
16 16 17 17 17 18 18 18 19 19 20 21 21 21 22 23 26 26 26 26 26 26 25 26 27 25 24 28 28 26 31 30 30 29 28 29 28 28 28 28 27 26 25 25 25
17 17 17 17 18 18 18 18 19 19 20 20 21 21 22 25 27 25 24 26 25 25 25 27 28 30 29 29 27 26 28 29 29 29 29 29 29 27 28 27 27 26 26 26 26
17 17 18 18 18 18 18 18 19 19 20 20 21 21 20 25 26 26 26 24 24 25 26 28 29 30 30 31 27 24 27 30 31 30 30 28 26 27 27 27 27 25 26 26 26
17 18 18 18 18 19 19 19 19 20 20 20 20 21 23 25 25 25 25 26 26 26 27 28 29 29 29 30 30 29 27 29 21 31 29 30 24 26 27 27 26 26 27 27 26
18 18 19 19 19 19 19 20 20 20 20 20 20 21 25 25 25 25 26 27 27 27 28 28 28 28 30 31 29 30 27 24 25 29 31 31 25 22 28 27 26 26 27 27 26
18 19 19 19 19 20 20 20 20 20 20 20 20 22 25 26 26 25 26 26 27 28 28 28 28 29 30 31 29 29 31 30 27 29 28 31 28 26 28 28 26 26 27 27 26
18 18 19 19 19 19 20 20 21 20 20 24 25 26 26 26 25 25 25 26 26 27 28 29 29 28 30 32 32 30 29 30 31 28 28 32 29 28 28 29 27 27 27 27 27
18 18 19 19 19 19 20 22 21 21 22 24 25 25 25 24 25 26 26 26 27 27 29 29 28 30 32 32 33 32 30 31 31 33 33 33 28 30 30 30 28 28 28 28 27
17 18 19 19 19 20 21 21 20 21 23 25 25 25 25 24 26 26 27 27 27 27 28 28 30 31 31 32 32 33 32 32 33 32 33 33 29 30 32 30 29 27 27 28 28
17 18 18 18 19 21 22 21 21 21 23 26 26 25 25 26 26 26 26 27 28 27 28 29 31 31 31 31 32 31 34 33 32 31 30 33 31 33 31 31 29 28 27 28 28
17 18 18 18 20 22 21 21 20 21 24 27 27 25 26 26 27 27 26 27 27 27 28 28 29 30 30 31 32 32 34 34 33 31 32 32 31 33 33 31 30 29 28 27 28
17 17 18 18 20 21 20 21 21 23 23 26 27 27 27 27 28 27 27 26 27 27 28 29 30 31 31 33 33 33 33 33 31 32 30 33 33 32 33 32 32 31 29 28 28
17 17 18 19 20 20 20 21 23 24 26 26 25 26 26 26 28 27 27 27 26 25 25 27 29 31 32 31 33 32 32 30 29 29 29 33 33 31 33 33 32 32 30 29 28
17 18 18 19 20 20 20 23 22 25 25 26 25 25 25 26 27 26 26 26 27 27 26 26 26 29 31 31 31 32 32 30 28 29 31 33 32 34 35 35 34 32 31 28 28
18 18 19 20 21 20 21 23 24 24 24 24 24 25 25 26 25 25 26 26 27 28 26 26 27 31 31 32 32 31 31 32 31 32 32 33 34 36 36 35 35 34 32 31 28
18 19 21 21 21 21 23 22 24 24 23 24 22 24 23 24 24 25 25 25 24 25 27 27 26 29 31 32 32 32 32 30 31 28 28 31 32 33 33 34 35 35 33 32 31
17 21 22 21 21 22 23 24 24 23 22 22 22 22 23 22 23 23 24 22 23 23 24 26 26 27 30 30 30 30 31 30 32 32 30 30 32 34 33 33 34 35 34 32 31
18 22 21 21 22 24 24 24 21 23 22 22 23 22 22 22 21 22 22 21 21 22 23 25 24 25 27 30 32 31 30 30 30 29 32 31 32 36 34 35 34 35 34 33 32
18 23 22 21 23 25 24 24 22 23 22 22 21 22 22 21 20 21 22 23 21 22 22 22 23 23 25 28 30 31 31 31 31 31 30 30 32 30 29 32 32 33 33 32 31
18 24 23 22 22 23 23 23 23 22 21 21 21 21 21 21 21 20 21 23 21 20 20 21 22 22 24 26 29 29 30 30 31 30 30 31 32 32 31 27 31 30 30 31 29
19 23 21 23 23 22 22 22 22 22 21 21 21 21 21 19 19 20 21 22 22 21 22 23 21 23 24 26 26 27 29 29 29 29 29 31 32 33 30 26 30 29 24 24 23
18 19 19 21 21 21 18 21 21 21 21 20 20 20 20 18 19 18 19 20 20 21 21 22 20 21 21 25 26 26 28 30 29 29 30 30 31 30 27 24 23 24 23 21 20
17 17 18 20 22 22 22 21 20 20 20 19 19 19 19 19 17 17 17 18 18 18 19 19 19 19 19 24 25 24 27 28 29 30 30 29 30 24 24 26 23 21 19 18 18
Height
1521 1519 1518 1516 1515 1513 1511 1509 1508 1506 1504 1503 1502 1502 1501 1500 1501 1501 1500 1500 1498 1498 1498 1499 1499 1499 1497 1495 1492 1490 1500 1506 1484 1485 1480 1478 1481 1489 1493 1499 1503 1506 1514 1523 1530
1520 1518 1517 1515 1513 1511 1510 1508 1507 1505 1504 1502 1501 1500 1500 1499 1499 1498 1500 1499 1498 1499 1499 1500 1499 1499 1496 1494 1492 1488 1511 1507 1486 1484 1477 1483 1486 1492 1497 1500 1506 1512 1520 1526 1532
1520 1518 1516 1514 1512 1510 1509 1507 1505 1504 1502 1501 1500 1499 1499 1500 1498 1494 1495 1497 1498 1499 1501 1500 1499 1499 1496 1495 1492 1481 1499 1478 1474 1477 1478 1484 1488 1493 1495 1500 1509 1515 1522 1527 1532
1520 1517 1515 1513 1511 1509 1507 1506 1504 1502 1501 1500 1499 1498 1499 1500 1498 1493 1494 1496 1498 1499 1501 1500 1500 1502 1501 1496 1492 1488 1481 1479 1483 1479 1482 1488 1490 1499 1501 1501 1510 1518 1524 1528 1531
1519 1517 1515 1512 1510 1508 1506 1504 1503 1501 1499 1499 1498 1498 1499 1500 1494 1494 1495 1495 1496 1497 1499 1500 1500 1498 1498 1492 1492 1491 1480 1482 1482 1485 1488 1491 1496 1498 1504 1506 1512 1519 1525 1528 1531
1519 1516 1514 1512 1510 1507 1506 1503 1502 1500 1498 1498 1497 1497 1498 1499 1494 1493 1494 1495 1496 1496 1498 1498 1496 1492 1489 1489 1490 1490 1484 1482 1482 1486 1489 1493 1497 1502 1507 1509 1514 1521 1525 1528 1531
1518 1515 1514 1512 1510 1508 1506 1504 1501 1499 1498 1497 1497 1497 1498 1494 1493 1494 1496 1495 1496 1497 1497 1494 1493 1491 1487 1482 1487 1490 1489 1480 1480 1483 1486 1491 1502 1503 1507 1511 1515 1521 1523 1526 1530
1518 1515 1513 1511 1509 1507 1505 1503 1501 1499 1498 1497 1497 1497 1495 1492 1491 1493 1494 1495 1496 1497 1496 1493 1492 1491 1490 1484 1480 1482 1486 1485 1498 1479 1488 1489 1512 1507 1507 1511 1516 1518 1521 1524 1529
1518 1515 1512 1510 1509 1506 1504 1502 1500 1499 1498 1498 1497 1498 1493 1491 1490 1490 1493 1493 1494 1495 1495 1495 1493 1491 1487 1482 1489 1474 1496 1502 1495 1481 1482 1483 1505 1506 1506 1509 1516 1517 1519 1523 1527
1518 1515 1512 1510 1508 1506 1504 1501 1500 1499 1498 1497 1497 1502 1492 1490 1490 1490 1491 1492 1491 1492 1493 1495 1493 1489 1482 1480 1494 1487 1477 1477 1489 1481 1483 1481 1490 1498 1498 1504 1511 1515 1516 1520 1525
1518 1516 1513 1511 1509 1507 1505 1501 1502 1502 1499 1495 1493 1491 1491 1490 1491 1491 1491 1492 1493 1491 1488 1488 1490 1489 1479 1472 1467 1470 1480 1477 1471 1482 1481 1474 1481 1490 1493 1496 1505 1510 1512 1517 1521
1519 1516 1513 1511 1510 1509 1506 1506 1506 1507 1499 1494 1492 1492 1491 1491 1491 1489 1490 1491 1491 1489 1487 1486 1484 1477 1473 1468 1465 1468 1479 1470 1473 1468 1467 1465 1485 1478 1480 1484 1495 1502 1506 1512 1517
1519 1517 1515 1512 1510 1509 1509 1509 1507 1506 1501 1490 1491 1490 1490 1491 1488 1487 1487 1487 1487 1488 1484 1482 1475 1472 1472 1469 1468 1460 1467 1463 1462 1462 1461 1463 1476 1475 1469 1478 1487 1498 1503 1506 1511
1520 1517 1515 1513 1512 1511 1510 1509 1508 1507 1500 1486 1487 1489 1489 1486 1484 1484 1484 1485 1484 1484 1481 1476 1471 1467 1467 1468 1463 1468 1449 1455 1461 1474 1484 1456 1484 1458 1463 1471 1480 1491 1498 1501 1505
1520 1518 1515 1513 1512 1511 1511 1509 1508 1507 1500 1486 1484 1489 1486 1486 1482 1480 1481 1482 1481 1480 1482 1473 1471 1466 1465 1461 1459 1461 1447 1449 1454 1470 1464 1463 1473 1451 1452 1463 1470 1479 1487 1494 1500
1520 1518 1516 1514 1513 1513 1511 1510 1509 1506 1506 1486 1483 1483 1483 1479 1476 1475 1479 1481 1482 1478 1474 1468 1464 1460 1457 1453 1453 1454 1452 1452 1458 1458 1482 1457 1460 1459 1448 1452 1455 1465 1476 1485 1491
1520 1518 1516 1515 1514 1512 1511 1510 1505 1496 1486 1487 1488 1486 1484 1481 1473 1474 1477 1475 1480 1489 1483 1470 1462 1456 1454 1454 1449 1453 1459 1479 1488 1487 1482 1444 1451 1449 1445 1445 1449 1456 1466 1477 1486
1519 1517 1516 1514 1515 1513 1512 1508 1506 1488 1489 1490 1489 1486 1485 1477 1472 1478 1474 1476 1470 1470 1475 1472 1477 1456 1450 1447 1451 1449 1455 1469 1492 1482 1465 1438 1455 1437 1427 1433 1438 1446 1456 1471 1479
1518 1516 1514 1515 1515 1514 1512 1504 1493 1496 1497 1496 1491 1484 1481 1474 1480 1481 1476 1474 1468 1464 1473 1475 1462 1444 1442 1440 1442 1446 1452 1444 1457 1444 1453 1439 1429 1419 1418 1426 1434 1439 1449 1459 1470
1517 1516 1512 1513 1513 1513 1508 1501 1494 1501 1503 1498 1500 1488 1494 1486 1484 1481 1477 1472 1474 1469 1460 1459 1466 1443 1434 1435 1434 1437 1436 1457 1450 1478 1483 1452 1439 1443 1427 1430 1431 1435 1441 1453 1461
1516 1511 1507 1511 1512 1509 1501 1492 1496 1501 1507 1503 1500 1499 1496 1495 1491 1487 1482 1487 1485 1481 1473 1462 1459 1448 1433 1430 1436 1438 1442 1442 1439 1444 1463 1468 1444 1416 1421 1428 1428 1432 1437 1447 1455
1517 1509 1507 1509 1509 1496 1491 1495 1505 1502 1503 1503 1501 1500 1498 1498 1498 1495 1491 1491 1492 1488 1480 1466 1462 1458 1441 1424 1422 1426 1436 1441 1451 1457 1439 1442 1436 1397 1414 1421 1422 1432 1434 1439 1448
1515 1504 1505 1507 1502 1490 1493 1497 1503 1503 1503 1504 1505 1502 1500 1502 1505 1497 1492 1489 1491 1489 1487 1484 1472 1471 1456 1437 1421 1419 1426 1430 1432 1431 1441 1451 1436 1415 1440 1426 1431 1432 1436 1443 1446
1517 1500 1500 1503 1502 1499 1495 1496 1496 1502 1508 1507 1508 1506 1502 1499 1496 1497 1491 1484 1486 1491 1490 1489 1481 1476 1465 1443 1422 1425 1426 1426 1428 1438 1439 1436 1426 1419 1425 1441 1437 1438 1442 1443 1447
1516 1505 1509 1501 1498 1502 1502 1503 1501 1500 1502 1505 1504 1502 1500 1505 1503 1499 1490 1484 1483 1486 1487 1481 1481 1469 1455 1441 1434 1434 1422 1425 1432 1431 1437 1429 1424 1413 1420 1439 1437 1443 1449 1449 1453
1520 1518 1512 1507 1507 1506 1503 1500 1502 1503 1505 1506 1505 1502 1505 1507 1504 1502 1498 1494 1492 1488 1486 1482 1481 1474 1467 1444 1441 1440 1426 1419 1428 1431 1431 1428 1426 1421 1424 1432 1442 1447 1456 1459 1461
1524 1521 1518 1509 1503 1501 1499 1501 1504 1507 1507 1508 1509 1508 1507 1504 1506 1506 1504 1500 1497 1495 1492 1489 1486 1484 1480 1448 1444 1448 1431 1425 1423 1425 1429 1435 1427 1434 1437 1443 1455 1458 1465 1464 1465
Wind_Speed
8 8 8 8 8 8 9 10 11 11 13 14 15 15 15 15 11 10 8 2 4 5 2 2 4 4 6 10 8 10 4 7 5 2 10 13 15 14 14 16 11 19 28 26 25
9 9 9 9 9 9 9 10 11 11 11 13 14 15 14 16 15 14 12 12 12 5 4 8 6 8 5 4 5 2 4 10 8 9 13 9 18 18 13 14 13 25 27 26 23
10 10 10 10 10 9 10 11 11 11 11 11 12 13 12 12 15 14 16 14 11 5 6 6 7 1 9 6 4 5 3 11 14 12 15 17 18 6 10 16 20 27 28 27 23
11 11 11 11 10 10 10 11 12 11 10 9 9 9 9 8 3 2 7 13 10 8 9 4 4 8 4 7 5 5 4 14 16 10 14 13 5 21 9 19 21 24 25 25 23
12 11 11 11 11 10 11 11 11 11 9 8 7 6 6 8 22 11 4 11 12 13 14 12 8 10 6 12 6 3 8 2 10 13 13 11 11 12 9 15 22 24 23 22 22
12 12 11 11 11 10 11 11 10 10 8 6 5 4 3 14 2 4 3 7 12 15 14 15 16 10 8 15 7 11 16 5 5 15 10 12 12 10 11 17 24 23 22 21 21
13 12 11 11 10 9 9 10 9 8 7 4 3 3 7 16 4 5 9 8 13 15 16 15 14 15 15 11 8 10 16 14 14 13 10 13 5 11 15 19 23 22 21 21 20
15 14 12 10 10 10 10 10 9 8 6 3 1 2 7 5 12 8 9 13 12 16 17 17 11 13 16 16 15 16 10 6 10 9 8 10 5 12 19 21 22 22 22 21 20
15 14 12 10 9 9 10 8 9 7 4 1 1 2 10 6 8 14 13 16 15 16 16 16 13 17 19 16 9 10 6 4 1 17 10 10 9 3 21 22 21 21 22 21 21
13 13 12 11 9 9 9 8 10 5 6 3 6 8 9 4 2 5 12 15 18 16 17 18 20 15 15 14 11 11 14 14 8 9 16 11 14 18 25 25 24 24 24 23 23
13 12 11 9 7 9 12 9 7 1 3 12 11 11 11 5 7 10 9 14 18 19 18 21 15 18 20 19 20 5 14 18 16 11 14 11 18 19 25 25 26 27 26 25 25
11 10 10 7 4 8 10 10 8 9 11 11 9 8 6 9 14 10 10 16 18 18 20 18 21 22 22 22 22 15 15 21 6 12 12 6 4 21 22 22 31 29 28 28 26
9 10 8 5 7 6 6 8 9 10 7 6 4 4 3 7 9 14 12 18 19 20 23 22 22 23 24 22 23 23 18 20 16 8 8 11 15 25 21 25 29 27 27 29 29
8 8 7 3 5 6 2 10 10 8 5 7 6 5 9 6 10 5 16 19 17 23 23 25 25 26 23 22 23 22 16 18 7 8 10 17 11 15 19 18 25 29 31 30 30
8 8 6 9 3 6 9 9 10 6 2 5 3 6 5 7 14 10 2 19 17 20 22 24 27 25 27 23 24 22 23 19 12 13 11 13 10 15 21 20 24 29 36 35 31
6 8 6 6 5 8 9 10 8 6 3 4 3 8 12 14 14 5 13 10 23 18 25 25 33 27 27 26 22 23 23 15 12 18 11 21 14 17 18 21 23 32 39 39 36
4 6 7 2 8 10 10 8 6 3 4 5 14 11 13 14 13 10 13 14 13 16 20 23 29 28 30 27 25 23 21 14 13 12 14 19 18 7 4 10 18 19 37 37 33
4 5 3 4 7 9 6 9 8 7 5 12 11 14 13 13 8 9 18 11 17 19 19 19 22 28 28 28 25 25 23 16 17 15 16 20 17 12 19 22 21 34 34 40 38
5 4 4 3 6 5 11 10 6 6 7 9 13 12 8 9 3 14 15 16 19 18 20 21 30 23 28 30 25 26 22 23 26 22 15 14 20 16 13 14 14 25 29 37 47
7 10 14 4 5 7 10 12 3 4 7 11 11 8 11 15 17 9 19 15 24 24 27 14 24 31 25 30 30 27 18 20 16 21 15 21 10 12 14 12 14 13 27 31 31
6 8 10 3 5 12 10 5 1 4 6 8 12 11 12 12 16 18 17 8 14 23 30 21 19 24 24 24 27 17 20 23 18 19 16 15 14 19 14 14 13 15 27 33 34
10 10 5 3 10 12 3 4 5 9 4 4 8 11 9 13 14 16 21 4 13 18 20 20 16 16 22 22 22 28 24 26 16 19 16 15 15 10 15 14 10 16 19 26 30
9 11 2 2 8 9 8 3 3 8 8 7 9 12 11 11 15 15 17 8 1 11 12 13 9 13 18 21 25 29 25 24 25 22 19 16 16 23 5 1 10 8 14 5 4
8 4 8 5 6 7 9 4 5 8 4 3 9 13 12 12 11 15 18 22 2 20 4 7 15 19 17 18 16 22 25 26 23 17 16 17 23 11 18 12 2 12 7 6 16
6 5 6 6 7 9 7 11 8 8 4 6 10 12 8 10 13 16 19 18 20 4 11 13 15 19 25 30 27 25 19 21 22 21 19 20 21 14 14 12 14 17 20 22 23
8 11 13 16 2 7 5 9 3 9 7 10 11 11 11 12 14 15 16 17 17 16 17 17 13 16 24 25 24 25 26 22 24 24 23 24 22 11 20 36 24 21 16 17 18
10 11 10 15 11 6 3 10 5 8 7 2 8 10 11 12 17 19 21 23 22 18 18 17 13 14 18 22 20 22 23 20 18 24 25 22 13 17 17 17 18 14 11 14 15
Wind_Direction
349 343 337 332 330 325 317 315 311 301 292 286 285 287 289 294 297 291 287 331 288 296 225 140 187 196 247 274 286 292 60 331 306 94 140 94 98 84 95 123 109 99 139 140 142
345 340 333 328 325 324 316 315 315 312 302 292 282 281 283 292 296 278 267 257 268 258 182 189 210 205 260 258 283 239 118 235 130 234 106 106 104 125 112 121 123 120 127 140 144
344 340 335 330 325 323 319 319 317 314 309 300 287 276 278 290 302 260 222 232 252 234 208 219 280 300 311 250 258 259 210 197 132 114 115 134 114 54 129 128 129 134 141 147 149
343 343 341 337 332 329 328 326 322 317 310 298 289 280 264 262 272 63 193 210 228 216 220 275 268 21 304 273 228 297 189 58 314 127 93 90 75 100 70 118 138 144 149 150 154
339 341 341 341 340 337 334 333 330 327 317 297 289 286 247 245 253 266 283 220 212 213 219 235 265 185 260 294 221 257 258 205 132 106 107 124 91 92 101 125 138 146 154 157 158
336 333 335 340 344 341 338 338 336 336 331 308 290 287 241 248 206 282 226 234 219 215 232 249 252 273 290 260 218 215 274 191 187 138 148 121 132 101 128 138 143 150 161 164 160
346 340 334 334 342 344 342 341 340 344 346 330 292 260 258 234 250 233 225 237 213 222 241 248 264 286 289 329 137 177 248 202 164 157 154 98 53 147 148 148 147 159 167 169 165
354 349 345 340 342 346 346 344 344 345 351 4 315 219 255 262 234 249 234 229 226 225 242 261 283 279 282 286 282 214 201 211 340 187 165 152 174 227 161 159 155 178 172 171 171
356 356 351 348 349 349 350 353 354 356 14 357 51 244 267 268 270 256 236 232 225 227 239 252 273 265 269 250 262 254 130 150 226 303 178 183 118 239 172 168 168 194 177 173 174
354 356 358 359 1 5 355 332 326 339 337 288 274 262 262 320 341 274 230 233 241 227 235 238 246 256 248 254 246 249 241 193 172 224 227 179 182 187 180 185 175 198 182 182 177
350 349 351 357 21 34 16 354 339 195 277 281 308 285 301 285 283 274 243 226 233 250 232 227 234 236 240 234 253 153 306 255 193 208 250 219 154 176 184 194 176 196 186 189 183
356 357 356 1 45 35 19 2 16 333 308 299 284 283 281 293 286 281 228 225 222 236 233 237 227 238 243 252 249 216 247 267 207 188 231 203 101 190 180 187 178 191 188 193 186
5 4 8 48 66 15 2 355 343 337 282 155 344 296 348 301 285 270 240 226 233 230 241 234 236 226 245 246 254 256 221 264 192 145 234 234 205 214 180 179 178 194 197 196 191
0 3 14 351 2 359 350 339 338 328 275 149 167 108 306 290 253 302 249 237 237 248 234 249 241 253 220 245 247 253 231 240 158 209 252 217 244 214 170 173 174 190 196 204 195
4 13 25 24 342 344 311 323 322 293 220 89 44 313 279 244 298 314 282 250 239 255 243 246 244 243 251 227 245 251 262 244 273 216 246 218 232 203 181 178 177 187 190 200 199
353 10 24 1 352 339 322 314 298 240 85 326 325 357 309 313 307 261 255 241 261 266 260 252 255 247 247 252 229 254 257 255 263 275 262 257 220 286 181 192 186 187 187 191 197
321 352 15 46 330 321 325 305 246 287 57 21 343 317 314 300 288 344 301 250 237 245 252 255 250 254 255 245 243 227 245 246 217 249 246 248 245 178 158 158 183 184 179 186 190
270 339 37 343 329 317 319 269 265 61 348 353 319 310 279 288 289 310 297 270 272 250 262 251 243 241 244 246 240 231 229 242 235 222 229 228 244 240 181 176 189 181 179 182 192
259 231 286 297 297 321 296 268 23 27 5 328 312 295 344 308 34 320 282 277 283 266 243 256 266 242 229 245 229 240 228 233 253 256 266 251 213 219 202 167 176 176 170 182 187
254 275 247 270 277 285 271 269 50 12 341 309 299 340 331 321 321 323 303 15 352 346 331 290 256 267 254 223 242 232 242 222 240 254 248 273 234 243 154 180 195 172 166 179 188
274 259 158 245 275 264 262 56 17 80 345 327 330 318 314 316 312 306 301 45 326 323 323 308 297 257 262 245 221 212 234 251 253 236 253 244 260 194 161 216 190 186 174 176 182
282 268 163 275 261 235 350 48 0 283 301 291 303 295 312 318 314 308 301 23 327 298 307 315 316 290 257 264 251 229 219 236 246 236 247 261 262 178 168 168 87 211 170 178 182
278 282 142 244 268 306 99 295 195 303 339 330 305 304 316 304 292 290 285 266 309 295 352 346 296 286 272 272 269 218 217 228 237 247 227 246 247 101 2 37 130 132 133 133 180
286 277 185 214 280 281 329 276 244 169 247 298 294 298 283 280 305 300 289 285 220 316 338 293 270 264 272 268 282 199 216 232 238 240 239 246 254 140 148 160 270 88 82 115 46
262 5 358 298 44 346 317 312 303 282 158 304 284 292 315 319 306 300 304 312 316 193 271 270 277 277 280 280 289 295 222 229 249 257 248 247 242 243 132 69 114 117 65 63 55
333 347 342 282 271 295 234 280 300 311 341 309 312 329 327 298 293 305 313 303 305 317 303 298 292 304 295 276 276 276 278 223 224 246 255 261 265 3 107 106 90 57 61 55 50
354 319 287 298 269 259 10 346 332 333 291 305 311 312 299 334 337 313 296 286 283 280 279 288 291 286 277 281 276 263 264 270 231 219 241 248 260 76 64 69 87 83 58 55 49